User: anonymous
Location: Columbus
(29.5618°N, 96.6770°W)
Time: 11:48:00
(UTC-05:00)
Language:

Cosmos 2056 Rocket - Orbit

View from above orbital plane
View from above orbital plane
View from above satellite
View from above satellite

Ground track
Ground track

The orbit data is extracted from the following two-line orbital elements,

1 20433U 90004B   14107.98750935  .00000271  00000-0  10215-3 0  6982
2 20433 074.0359 318.2429 0041204 008.1168 151.9386 14.35612322269252
Epoch (UTC): 17 April 2014 23:42:00
Eccentricity: 0.0041204
inclination: 74.0359°
perigee height: 743 km
apogee height: 802 km
right ascension of ascending node: 318.2429°
argument of perigee: 8.1168°
revolutions per day: 14.35612322
mean anomaly at epoch: 151.9386°
orbit number at epoch: 26925

The dashed part of the orbit path shows where the satellite is in the earth's shadow,  

DLR